CORVUS BC4

Last updated on Mon Sep 21 2026 00:03:44 GMT+0000 (Coordinated Universal Time)

1 43767U 18099K 26262.83968109 .00002424 00000+0 14030-3 0 9998 2 43767 97.3985 303.0459 0009156 43.1702 317.0246 15.13125543426715
UTC large
Height (km)
Speed (km/s)
/
Latitude / Longitude
Inclination (degrees)
Orbital Period (minutes)
Azimuth
Elevation
Range (km)
Doppler Factor

Next 0 passes for location: London (51.5072 / 0.1276)

No passes found over London.
CORVUS BC4